Location: Chuathbaluk
(61.5726°N, 159.2454°W)
Time: 05:08:14
(UTC+00:00)

Transit 4A - Pass Details

Date: 29 November 2020
Orbit: 864 x 980 km, 66.8° (Epoch: 26 January)

Event Time Altitude Azimuth Distance (km) Brightness Sun altitude
Rises 18:13:51 0° 187° (S) 3,645 11.4 -7.1°
Reaches altitude 10° 18:16:38 10° 177° (S) 2,713 10.9 -6.8°
Maximum altitude 18:22:08 32° 117° (ESE) 1,615 10.1 -6.2°
Drops below altitude 10° 18:27:42 10° 57° (ENE) 2,744 10.7 -5.7°
Sets 18:30:32 0° 49° (NE) 3,692 11.2 -5.4°
